QPF
0.00 0.00 0.00 0.00 0.00 0.00 0.00 0.00 0.00 0.00 0.00 0.00 0.00 0.00 0.00 0.00 0.00 0.00 0.00 0.00 0.00 0.00 0.00 0.00 0.00 0.00 0.00 0.00 0.00 0.00 0.00 0.00 0.00 0.00 0.00 0.00 0.00 0.00 0.00 0.00 0.00 0.00 0.00 0.00 0.00
0.00 0.00 0.00 0.00 0.00 0.00 0.00 0.00 0.00 0.00 0.00 0.00 0.00 0.00 0.00 0.00 0.00 0.00 0.00 0.00 0.00 0.00 0.00 0.00 0.00 0.00 0.00 0.00 0.00 0.00 0.00 0.00 0.00 0.00 0.00 0.00 0.00 0.00 0.00 0.00 0.00 0.00 0.00 0.00 0.00
0.00 0.00 0.00 0.00 0.00 0.00 0.00 0.00 0.00 0.00 0.00 0.00 0.00 0.00 0.00 0.00 0.00 0.00 0.00 0.00 0.00 0.00 0.00 0.00 0.00 0.00 0.00 0.00 0.00 0.00 0.00 0.00 0.00 0.00 0.00 0.00 0.00 0.00 0.00 0.00 0.00 0.00 0.00 0.00 0.00
0.00 0.00 0.00 0.00 0.00 0.00 0.00 0.00 0.00 0.00 0.00 0.00 0.00 0.00 0.00 0.00 0.00 0.00 0.00 0.00 0.00 0.00 0.00 0.00 0.00 0.00 0.00 0.00 0.00 0.00 0.00 0.00 0.00 0.00 0.00 0.00 0.00 0.00 0.00 0.00 0.00 0.00 0.00 0.00 0.00
0.00 0.00 0.00 0.00 0.00 0.00 0.00 0.00 0.00 0.00 0.00 0.00 0.00 0.00 0.00 0.00 0.00 0.00 0.00 0.00 0.00 0.00 0.00 0.00 0.00 0.00 0.00 0.00 0.00 0.00 0.00 0.00 0.00 0.00 0.00 0.00 0.00 0.00 0.00 0.00 0.00 0.00 0.00 0.00 0.00
0.00 0.00 0.00 0.00 0.00 0.00 0.00 0.00 0.00 0.00 0.00 0.00 0.00 0.00 0.00 0.00 0.00 0.00 0.00 0.00 0.00 0.00 0.00 0.00 0.00 0.00 0.00 0.00 0.00 0.00 0.00 0.00 0.00 0.00 0.00 0.00 0.00 0.00 0.00 0.00 0.00 0.00 0.00 0.00 0.00
0.00 0.00 0.00 0.00 0.00 0.00 0.00 0.00 0.00 0.00 0.00 0.00 0.00 0.00 0.00 0.00 0.00 0.00 0.00 0.00 0.00 0.00 0.00 0.00 0.00 0.00 0.00 0.00 0.00 0.00 0.00 0.00 0.00 0.00 0.00 0.00 0.00 0.00 0.00 0.00 0.00 0.00 0.00 0.00 0.00
0.00 0.00 0.00 0.00 0.00 0.00 0.00 0.00 0.00 0.00 0.00 0.00 0.00 0.00 0.00 0.00 0.00 0.00 0.00 0.00 0.00 0.00 0.00 0.00 0.00 0.00 0.00 0.00 0.00 0.00 0.00 0.00 0.00 0.00 0.00 0.00 0.00 0.00 0.00 0.00 0.00 0.00 0.00 0.00 0.00
0.00 0.00 0.00 0.00 0.00 0.00 0.00 0.00 0.00 0.00 0.00 0.00 0.00 0.00 0.00 0.00 0.00 0.00 0.00 0.00 0.00 0.00 0.00 0.00 0.00 0.00 0.00 0.00 0.00 0.00 0.00 0.00 0.00 0.00 0.00 0.00 0.00 0.00 0.00 0.00 0.00 0.00 0.00 0.00 0.00
0.00 0.00 0.00 0.00 0.00 0.00 0.00 0.00 0.00 0.00 0.00 0.00 0.00 0.00 0.00 0.00 0.00 0.00 0.00 0.00 0.00 0.00 0.00 0.00 0.00 0.00 0.00 0.00 0.00 0.00 0.00 0.00 0.00 0.00 0.00 0.00 0.00 0.00 0.00 0.00 0.00 0.00 0.00 0.00 0.00
0.00 0.00 0.00 0.00 0.00 0.00 0.00 0.00 0.00 0.00 0.00 0.00 0.00 0.00 0.00 0.00 0.00 0.00 0.00 0.00 0.00 0.00 0.00 0.00 0.00 0.00 0.00 0.00 0.00 0.00 0.00 0.00 0.00 0.00 0.00 0.00 0.00 0.00 0.00 0.00 0.00 0.00 0.00 0.00 0.00
0.00 0.00 0.00 0.00 0.00 0.00 0.00 0.00 0.00 0.00 0.00 0.00 0.00 0.00 0.00 0.00 0.00 0.00 0.00 0.00 0.00 0.00 0.00 0.00 0.00 0.00 0.00 0.00 0.00 0.00 0.00 0.00 0.00 0.00 0.00 0.00 0.00 0.00 0.00 0.00 0.00 0.00 0.00 0.00 0.00
0.00 0.00 0.00 0.00 0.00 0.00 0.00 0.00 0.00 0.00 0.00 0.00 0.00 0.00 0.00 0.00 0.00 0.00 0.00 0.00 0.00 0.00 0.00 0.00 0.00 0.00 0.00 0.00 0.00 0.00 0.00 0.00 0.00 0.00 0.00 0.00 0.00 0.00 0.00 0.00 0.00 0.00 0.00 0.00 0.00
0.00 0.00 0.00 0.00 0.00 0.00 0.00 0.00 0.00 0.00 0.00 0.00 0.00 0.00 0.00 0.00 0.00 0.00 0.00 0.00 0.00 0.00 0.00 0.00 0.00 0.00 0.00 0.00 0.00 0.00 0.00 0.00 0.00 0.00 0.00 0.00 0.00 0.00 0.00 0.00 0.00 0.00 0.00 0.00 0.00
0.00 0.00 0.00 0.00 0.00 0.00 0.00 0.00 0.00 0.00 0.00 0.00 0.00 0.00 0.00 0.00 0.00 0.00 0.00 0.00 0.00 0.00 0.00 0.00 0.00 0.00 0.00 0.00 0.00 0.00 0.00 0.00 0.00 0.00 0.00 0.00 0.00 0.00 0.00 0.00 0.00 0.00 0.00 0.00 0.00
0.00 0.00 0.00 0.00 0.00 0.00 0.00 0.00 0.00 0.00 0.00 0.00 0.00 0.00 0.00 0.00 0.00 0.00 0.00 0.00 0.00 0.00 0.00 0.00 0.00 0.00 0.00 0.00 0.00 0.00 0.00 0.00 0.00 0.00 0.00 0.00 0.00 0.00 0.00 0.00 0.00 0.00 0.00 0.00 0.00
0.00 0.00 0.00 0.00 0.00 0.00 0.00 0.00 0.00 0.00 0.00 0.00 0.00 0.00 0.00 0.00 0.00 0.00 0.00 0.00 0.00 0.00 0.00 0.00 0.00 0.00 0.00 0.00 0.00 0.00 0.00 0.00 0.00 0.00 0.00 0.00 0.00 0.00 0.00 0.00 0.00 0.00 0.00 0.00 0.00
0.00 0.00 0.00 0.00 0.00 0.00 0.00 0.00 0.00 0.00 0.00 0.00 0.00 0.00 0.00 0.00 0.00 0.00 0.00 0.00 0.00 0.00 0.00 0.00 0.00 0.00 0.00 0.00 0.00 0.00 0.00 0.00 0.00 0.00 0.00 0.00 0.00 0.00 0.00 0.00 0.00 0.00 0.00 0.00 0.00
0.00 0.00 0.00 0.00 0.00 0.00 0.00 0.00 0.00 0.00 0.00 0.00 0.00 0.00 0.00 0.00 0.00 0.00 0.00 0.00 0.00 0.00 0.00 0.00 0.00 0.00 0.00 0.00 0.00 0.00 0.00 0.00 0.00 0.00 0.00 0.00 0.00 0.00 0.00 0.00 0.00 0.00 0.00 0.00 0.00
0.00 0.00 0.00 0.00 0.00 0.00 0.00 0.00 0.00 0.00 0.00 0.00 0.00 0.00 0.00 0.00 0.00 0.00 0.00 0.00 0.00 0.00 0.00 0.00 0.00 0.00 0.00 0.00 0.00 0.00 0.00 0.00 0.00 0.00 0.00 0.00 0.00 0.00 0.00 0.00 0.00 0.00 0.00 0.00 0.00
0.00 0.00 0.00 0.00 0.00 0.00 0.00 0.00 0.00 0.00 0.00 0.00 0.00 0.00 0.00 0.00 0.00 0.00 0.00 0.00 0.00 0.00 0.00 0.00 0.00 0.00 0.00 0.00 0.00 0.00 0.00 0.00 0.00 0.00 0.00 0.00 0.00 0.00 0.00 0.00 0.00 0.00 0.00 0.00 0.00
0.00 0.00 0.00 0.00 0.00 0.00 0.00 0.00 0.00 0.00 0.00 0.00 0.00 0.00 0.00 0.00 0.00 0.00 0.00 0.00 0.00 0.00 0.00 0.00 0.00 0.00 0.00 0.00 0.00 0.00 0.00 0.00 0.00 0.00 0.00 0.00 0.00 0.00 0.00 0.00 0.00 0.00 0.00 0.00 0.00
0.00 0.00 0.00 0.00 0.00 0.00 0.00 0.00 0.00 0.00 0.00 0.00 0.00 0.00 0.00 0.00 0.00 0.00 0.00 0.00 0.00 0.00 0.00 0.00 0.00 0.00 0.00 0.00 0.00 0.00 0.00 0.00 0.00 0.00 0.00 0.00 0.00 0.00 0.00 0.00 0.00 0.00 0.00 0.00 0.00
0.00 0.00 0.00 0.00 0.00 0.00 0.00 0.00 0.00 0.00 0.00 0.00 0.00 0.00 0.00 0.00 0.00 0.00 0.00 0.00 0.00 0.00 0.00 0.00 0.00 0.00 0.00 0.00 0.00 0.00 0.00 0.00 0.00 0.00 0.00 0.00 0.00 0.00 0.00 0.00 0.00 0.00 0.00 0.00 0.00
0.00 0.00 0.00 0.00 0.00 0.00 0.00 0.00 0.00 0.00 0.00 0.00 0.00 0.00 0.00 0.00 0.00 0.00 0.00 0.00 0.00 0.00 0.00 0.00 0.00 0.00 0.00 0.00 0.00 0.00 0.00 0.00 0.00 0.00 0.00 0.00 0.00 0.00 0.00 0.00 0.00 0.00 0.00 0.00 0.00
0.00 0.00 0.00 0.00 0.00 0.00 0.00 0.00 0.00 0.00 0.00 0.00 0.00 0.00 0.00 0.00 0.00 0.00 0.00 0.00 0.00 0.00 0.00 0.00 0.00 0.00 0.00 0.00 0.00 0.00 0.00 0.00 0.00 0.00 0.00 0.00 0.00 0.00 0.00 0.00 0.00 0.00 0.00 0.00 0.00
0.00 0.00 0.00 0.00 0.00 0.00 0.00 0.00 0.00 0.00 0.00 0.00 0.00 0.00 0.00 0.00 0.00 0.00 0.00 0.00 0.00 0.00 0.00 0.00 0.00 0.00 0.00 0.00 0.00 0.00 0.00 0.00 0.00 0.00 0.00 0.00 0.00 0.00 0.00 0.00 0.00 0.00 0.00 0.00 0.00
MSLP
1020.17 1019.96 1019.72 1019.47 1019.09 1018.57 1017.98 1017.45 1017.03 1016.71 1016.39 1016.01 1015.66 1015.34 1015.03 1014.66 1014.04 1013.62 1013.00 1011.99 1011.77 1011.50 1011.29 1011.17 1011.17 1011.41 1011.52 1012.22 1012.69 1013.43 1014.65 1015.09 1014.32 1013.67 1013.06 1012.18 1011.89 1011.75 1011.67 1012.07 1012.60 1013.22 1013.91 1014.58 1015.10
1020.36 1020.00 1019.60 1019.15 1018.65 1018.17 1017.70 1017.23 1016.80 1016.43 1016.11 1015.79 1015.46 1015.20 1014.99 1014.71 1014.37 1013.23 1011.88 1011.64 1011.65 1011.54 1011.46 1011.67 1011.77 1011.80 1012.32 1012.65 1013.11 1013.72 1014.56 1014.30 1013.58 1013.10 1012.76 1012.26 1011.89 1011.76 1011.87 1012.27 1012.75 1013.44 1014.30 1015.06 1015.58
1020.36 1019.94 1019.50 1019.02 1018.52 1018.02 1017.53 1017.06 1016.59 1016.21 1015.89 1015.64 1015.42 1015.18 1014.87 1014.71 1014.18 1012.44 1011.61 1011.62 1011.60 1011.63 1011.67 1011.75 1011.92 1012.16 1012.73 1013.01 1013.41 1013.76 1013.99 1013.67 1013.09 1012.64 1012.45 1012.25 1012.05 1011.89 1012.04 1012.39 1012.71 1013.38 1014.42 1015.36 1015.90
1020.32 1019.84 1019.38 1018.85 1018.31 1017.81 1017.34 1016.83 1016.36 1015.95 1015.64 1015.44 1015.25 1015.04 1014.78 1014.72 1013.76 1011.99 1011.63 1011.62 1011.56 1011.54 1011.61 1011.87 1012.20 1012.75 1013.29 1013.60 1013.66 1013.77 1013.57 1013.40 1012.96 1012.66 1012.50 1012.29 1012.21 1012.22 1012.26 1012.14 1012.38 1012.90 1013.75 1015.01 1015.62
1020.29 1019.79 1019.25 1018.70 1018.11 1017.55 1017.06 1016.58 1016.10 1015.66 1015.38 1015.28 1015.17 1014.99 1014.73 1014.17 1012.77 1011.80 1011.69 1011.64 1011.53 1011.60 1012.05 1012.27 1012.69 1013.14 1013.52 1013.77 1013.77 1013.86 1013.64 1013.37 1012.93 1012.83 1012.65 1012.32 1012.23 1012.55 1012.48 1012.28 1012.69 1013.25 1013.98 1014.57 1015.25
1020.22 1019.71 1019.15 1018.60 1018.01 1017.40 1016.82 1016.27 1015.74 1015.30 1015.04 1014.97 1014.97 1015.00 1014.76 1013.59 1012.19 1011.88 1011.81 1011.77 1011.79 1011.90 1012.29 1012.44 1012.88 1013.16 1013.67 1013.94 1014.16 1014.13 1013.88 1013.51 1013.02 1012.90 1012.73 1012.76 1012.80 1012.86 1013.13 1013.10 1013.31 1013.76 1014.26 1014.64 1014.85
1020.10 1019.53 1018.97 1018.38 1017.72 1017.06 1016.38 1015.76 1015.17 1014.69 1014.53 1014.59 1014.76 1014.84 1014.21 1012.94 1012.27 1012.11 1011.93 1012.06 1012.04 1012.08 1012.38 1012.59 1012.80 1013.23 1013.80 1014.17 1014.26 1014.30 1014.25 1013.66 1013.47 1013.17 1013.00 1012.91 1013.22 1014.02 1014.30 1013.89 1013.89 1014.29 1014.64 1014.91 1014.86
1020.00 1019.39 1018.81 1018.16 1017.41 1016.68 1015.98 1015.34 1014.69 1014.16 1014.21 1014.41 1014.63 1014.76 1013.54 1012.24 1012.19 1012.12 1012.08 1012.09 1012.11 1012.18 1012.41 1012.71 1012.86 1013.49 1014.05 1014.37 1014.65 1014.95 1014.90 1014.74 1014.08 1013.68 1013.49 1013.44 1014.17 1014.81 1014.95 1014.74 1015.21 1015.15 1015.25 1015.10 1014.65
1019.85 1019.28 1018.62 1017.84 1017.04 1016.30 1015.62 1015.04 1014.60 1014.37 1014.35 1014.50 1014.70 1014.48 1013.29 1012.18 1012.32 1012.46 1012.36 1012.36 1012.34 1012.56 1012.83 1012.99 1013.39 1014.50 1014.71 1015.14 1015.61 1015.85 1015.78 1015.51 1014.75 1014.26 1014.12 1014.19 1015.01 1015.47 1015.54 1015.89 1016.08 1016.08 1015.90 1015.46 1014.67
1019.83 1019.12 1018.35 1017.58 1016.71 1016.00 1015.26 1014.79 1014.54 1014.52 1014.57 1014.50 1014.38 1014.42 1013.32 1013.27 1012.94 1012.71 1012.40 1012.42 1012.71 1012.97 1013.52 1013.96 1014.75 1015.27 1015.73 1015.78 1016.20 1016.18 1016.02 1015.77 1015.59 1015.12 1014.80 1015.20 1015.98 1016.36 1016.56 1016.84 1017.13 1016.87 1016.44 1015.96 1015.40
1019.56 1018.82 1018.11 1017.42 1016.55 1015.78 1015.16 1014.90 1015.29 1015.35 1014.86 1015.23 1014.99 1014.53 1013.97 1013.51 1013.18 1012.88 1012.64 1012.72 1013.14 1013.76 1014.52 1014.97 1015.55 1015.68 1015.69 1015.67 1015.72 1015.84 1015.99 1016.08 1015.69 1015.46 1015.64 1016.10 1016.61 1017.11 1017.40 1017.48 1017.69 1017.69 1017.32 1016.80 1016.24
1019.27 1018.60 1017.90 1017.32 1016.68 1015.81 1015.73 1016.72 1017.35 1017.50 1016.36 1015.18 1014.74 1014.33 1013.88 1013.72 1013.45 1013.17 1012.87 1013.32 1013.75 1014.46 1014.86 1015.43 1015.48 1015.16 1015.16 1015.30 1015.53 1015.79 1016.01 1016.05 1015.86 1015.79 1016.03 1016.66 1017.22 1017.73 1018.05 1018.53 1018.89 1018.80 1018.24 1017.72 1016.79
1019.04 1018.37 1017.74 1017.11 1016.53 1016.52 1017.07 1017.62 1017.52 1017.50 1016.71 1015.26 1014.49 1014.11 1013.86 1013.76 1013.76 1013.52 1013.35 1013.72 1014.22 1014.77 1015.18 1015.51 1015.15 1014.85 1014.82 1015.03 1015.32 1015.53 1015.85 1015.98 1016.18 1016.22 1016.51 1017.01 1017.79 1018.26 1018.60 1019.04 1019.19 1019.25 1019.20 1018.54 1018.01
1019.02 1018.30 1017.59 1016.88 1016.90 1017.59 1017.65 1017.68 1017.49 1017.36 1016.96 1015.89 1014.55 1013.98 1013.87 1013.84 1014.01 1013.75 1013.67 1014.02 1014.51 1015.07 1015.39 1015.55 1014.97 1014.78 1014.76 1014.90 1015.15 1015.51 1015.55 1015.92 1016.34 1016.97 1017.46 1017.65 1018.56 1018.90 1019.61 1019.96 1020.18 1020.32 1019.97 1019.57 1018.78
1018.98 1018.41 1017.76 1017.08 1017.70 1017.87 1017.95 1017.56 1017.42 1017.43 1017.14 1016.17 1014.69 1013.87 1014.02 1014.42 1014.57 1014.26 1014.22 1014.25 1014.99 1015.42 1015.87 1015.57 1015.18 1014.91 1014.82 1014.76 1015.02 1015.56 1015.84 1016.48 1016.80 1017.51 1018.03 1018.38 1019.03 1019.35 1019.89 1020.92 1021.38 1021.34 1021.01 1020.53 1019.89
1018.82 1018.31 1017.92 1017.78 1017.86 1017.80 1017.67 1017.48 1017.52 1017.54 1017.25 1016.38 1015.62 1015.30 1015.12 1015.11 1015.15 1015.01 1015.11 1015.29 1015.74 1016.04 1016.24 1016.05 1015.40 1015.19 1014.96 1015.01 1015.25 1015.71 1016.44 1017.32 1017.96 1018.42 1018.96 1018.72 1019.28 1020.31 1020.91 1021.51 1022.15 1022.21 1021.76 1021.30 1020.66
1018.71 1018.21 1017.91 1018.03 1018.33 1017.81 1017.58 1017.66 1018.04 1018.18 1018.33 1018.04 1017.35 1017.00 1016.86 1016.77 1016.53 1016.71 1017.39 1018.03 1018.25 1017.87 1017.88 1016.76 1015.88 1015.40 1015.23 1015.40 1015.68 1016.17 1017.24 1018.11 1018.81 1019.22 1019.52 1019.23 1019.90 1021.21 1021.68 1021.97 1022.39 1022.68 1022.54 1022.07 1021.44
1018.63 1018.33 1018.15 1017.94 1017.98 1017.77 1017.77 1018.12 1018.77 1019.77 1019.49 1019.06 1018.61 1018.20 1018.20 1018.26 1018.24 1018.48 1019.01 1019.97 1019.89 1019.81 1019.57 1018.66 1016.92 1016.00 1015.69 1015.87 1016.27 1016.84 1017.50 1018.46 1019.13 1019.66 1019.77 1019.69 1020.75 1021.69 1022.20 1022.48 1022.72 1022.86 1022.87 1022.53 1022.14
1018.43 1018.49 1018.51 1018.09 1017.77 1017.84 1018.22 1019.54 1021.04 1020.99 1020.66 1020.22 1019.65 1019.55 1019.64 1019.51 1019.55 1019.84 1020.88 1021.60 1021.54 1021.16 1021.03 1020.06 1018.28 1016.78 1016.22 1016.17 1016.58 1017.35 1017.83 1018.43 1019.33 1020.24 1020.44 1020.61 1021.46 1022.02 1022.61 1023.09 1023.36 1023.48 1023.40 1023.22 1022.84
1019.14 1019.06 1018.91 1018.15 1017.95 1018.19 1018.84 1021.41 1021.86 1021.73 1021.55 1020.98 1020.97 1021.10 1021.13 1021.13 1020.96 1021.20 1022.04 1022.68 1022.47 1022.03 1021.72 1021.38 1020.16 1018.02 1017.17 1016.83 1017.17 1017.43 1018.17 1018.91 1019.88 1020.74 1021.15 1021.41 1021.82 1022.29 1023.07 1023.66 1023.94 1024.07 1024.10 1023.96 1023.58
1019.66 1019.27 1018.41 1017.92 1018.12 1019.21 1021.45 1022.44 1022.48 1022.38 1022.00 1022.05 1022.25 1022.37 1022.58 1022.68 1022.50 1022.69 1023.48 1023.61 1023.35 1022.73 1022.26 1022.11 1021.58 1019.63 1018.43 1018.45 1018.63 1018.68 1019.10 1019.83 1020.50 1021.11 1021.66 1022.27 1022.60 1023.02 1023.40 1023.97 1024.51 1024.62 1024.51 1024.33 1024.10
1020.63 1020.16 1018.70 1017.97 1019.48 1021.91 1023.02 1023.03 1023.14 1023.20 1023.05 1022.90 1022.98 1023.38 1023.71 1023.75 1023.79 1023.83 1024.10 1024.16 1023.80 1023.51 1023.38 1023.09 1022.80 1021.98 1020.41 1019.66 1019.70 1019.96 1020.66 1021.36 1021.92 1022.18 1022.46 1022.84 1023.49 1023.90 1024.06 1024.31 1024.56 1024.85 1024.83 1024.59 1024.36
1021.72 1021.48 1019.50 1019.04 1021.74 1023.71 1024.02 1024.25 1024.40 1024.19 1024.47 1024.34 1024.63 1024.63 1024.54 1024.83 1025.09 1024.86 1024.85 1024.81 1024.55 1024.40 1024.41 1023.93 1023.78 1023.06 1021.54 1021.22 1020.95 1021.59 1022.13 1022.38 1022.58 1023.03 1023.13 1023.86 1024.36 1024.51 1024.69 1024.73 1024.95 1024.94 1024.87 1024.77 1024.55
1022.63 1022.94 1022.35 1022.84 1024.56 1024.44 1025.02 1025.42 1025.37 1025.33 1025.70 1025.81 1025.88 1025.59 1025.63 1025.92 1025.92 1026.00 1025.83 1025.57 1025.48 1025.28 1024.79 1024.55 1024.76 1024.58 1024.04 1023.76 1023.79 1023.45 1023.26 1023.42 1023.39 1023.84 1023.63 1023.82 1024.64 1025.09 1025.24 1025.38 1025.32 1025.19 1024.98 1024.76 1024.52
1023.92 1025.72 1025.68 1026.01 1026.17 1026.00 1025.68 1026.30 1026.29 1026.30 1026.35 1026.52 1026.79 1027.08 1027.06 1026.99 1026.92 1027.18 1027.06 1026.79 1026.41 1026.27 1025.92 1026.33 1026.24 1025.95 1025.20 1024.77 1024.63 1024.35 1024.17 1024.30 1024.34 1024.01 1024.21 1023.83 1024.42 1025.01 1025.32 1025.45 1025.50 1025.47 1025.30 1025.11 1024.86
1024.92 1025.72 1026.39 1027.19 1027.16 1026.66 1026.78 1027.49 1027.39 1027.37 1027.29 1027.32 1027.57 1027.77 1027.80 1027.85 1028.20 1028.31 1028.24 1027.89 1027.64 1027.55 1027.51 1027.62 1027.37 1027.26 1026.40 1025.47 1025.40 1025.15 1024.97 1024.78 1024.91 1024.77 1024.63 1024.66 1025.26 1025.49 1025.55 1025.63 1025.80 1025.77 1025.64 1025.51 1025.38
1025.67 1025.89 1026.04 1027.96 1027.76 1027.65 1028.05 1027.93 1027.87 1027.70 1028.07 1027.96 1028.05 1028.06 1028.25 1028.43 1028.34 1028.29 1028.34 1028.19 1028.37 1028.68 1028.73 1028.69 1028.52 1028.26 1027.33 1026.58 1025.98 1025.79 1025.69 1025.64 1025.76 1025.49 1025.33 1025.56 1025.78 1025.63 1025.77 1025.77 1025.77 1025.73 1025.73 1025.86 1025.79
Thickness
5689 5690 5690 5691 5693 5696 5702 5706 5709 5711 5712 5714 5716 5717 5718 5720 5726 5728 5727 5737 5738 5740 5741 5740 5738 5733 5732 5723 5721 5712 5679 5673 5689 5693 5698 5716 5718 5725 5728 5720 5721 5718 5718 5716 5714
5686 5689 5692 5695 5699 5702 5705 5709 5711 5713 5714 5716 5718 5719 5720 5721 5723 5726 5740 5740 5739 5739 5736 5729 5725 5727 5715 5715 5711 5696 5675 5685 5699 5704 5702 5710 5714 5716 5716 5712 5711 5710 5708 5705 5705
5685 5689 5693 5697 5701 5704 5708 5711 5713 5715 5716 5716 5717 5719 5721 5722 5724 5731 5741 5740 5740 5740 5738 5734 5729 5723 5712 5711 5706 5698 5685 5698 5705 5707 5708 5707 5709 5714 5707 5703 5705 5705 5702 5698 5698
5685 5690 5694 5698 5702 5706 5710 5713 5716 5718 5718 5718 5718 5720 5722 5722 5710 5737 5741 5741 5740 5740 5737 5729 5721 5711 5702 5699 5702 5694 5700 5701 5706 5706 5703 5704 5706 5705 5705 5706 5711 5708 5704 5698 5697
5684 5688 5693 5698 5703 5708 5712 5715 5718 5721 5721 5720 5720 5721 5723 5723 5726 5742 5741 5741 5741 5738 5728 5723 5713 5707 5698 5697 5698 5696 5699 5701 5704 5700 5702 5705 5703 5701 5698 5706 5706 5701 5699 5699 5699
5683 5688 5693 5698 5703 5708 5713 5717 5721 5723 5724 5724 5723 5721 5722 5718 5740 5741 5741 5740 5737 5733 5725 5722 5715 5713 5702 5698 5694 5694 5694 5692 5699 5701 5702 5699 5697 5699 5697 5697 5698 5696 5696 5698 5701
5681 5687 5693 5698 5704 5709 5715 5720 5724 5728 5728 5727 5725 5723 5723 5725 5738 5739 5739 5735 5735 5731 5722 5723 5721 5712 5704 5696 5698 5694 5687 5693 5694 5694 5699 5698 5694 5685 5686 5691 5693 5694 5694 5695 5700
5680 5686 5691 5697 5704 5710 5716 5721 5726 5730 5730 5728 5725 5723 5721 5740 5739 5737 5737 5733 5734 5732 5727 5725 5722 5710 5703 5701 5689 5683 5679 5669 5690 5689 5694 5694 5672 5681 5677 5679 5679 5685 5689 5694 5702
5681 5686 5691 5698 5705 5711 5717 5722 5725 5726 5726 5725 5723 5721 5719 5739 5731 5733 5733 5726 5728 5726 5722 5721 5714 5696 5694 5680 5669 5665 5663 5669 5672 5686 5688 5687 5675 5675 5675 5673 5674 5674 5678 5686 5697
5679 5686 5692 5699 5706 5712 5718 5722 5723 5723 5722 5722 5723 5716 5723 5716 5725 5728 5732 5728 5719 5717 5708 5703 5687 5678 5671 5668 5656 5666 5665 5667 5663 5676 5677 5670 5666 5666 5668 5667 5665 5669 5675 5683 5689
5681 5687 5693 5698 5705 5712 5718 5718 5712 5712 5714 5708 5709 5709 5713 5720 5724 5723 5726 5721 5715 5701 5687 5689 5676 5672 5680 5678 5677 5674 5667 5661 5665 5674 5672 5664 5662 5661 5660 5662 5661 5663 5669 5676 5680
5681 5687 5692 5697 5702 5709 5710 5699 5695 5695 5701 5708 5708 5710 5713 5715 5708 5713 5722 5706 5701 5686 5689 5676 5673 5686 5685 5680 5677 5671 5665 5659 5665 5670 5667 5661 5658 5658 5652 5653 5649 5651 5660 5666 5676
5682 5687 5692 5696 5701 5701 5696 5692 5692 5692 5692 5703 5708 5706 5707 5710 5701 5703 5711 5701 5692 5684 5682 5673 5685 5688 5687 5682 5675 5671 5663 5663 5664 5665 5664 5660 5649 5648 5653 5647 5648 5648 5648 5657 5662
5679 5685 5691 5696 5694 5688 5688 5687 5688 5688 5676 5684 5695 5699 5703 5702 5694 5706 5705 5699 5688 5680 5677 5672 5684 5684 5681 5678 5671 5666 5671 5672 5667 5652 5640 5651 5627 5644 5637 5633 5635 5631 5636 5642 5650
5675 5680 5685 5691 5684 5681 5683 5684 5684 5681 5664 5683 5688 5704 5698 5690 5690 5693 5698 5694 5679 5678 5673 5672 5677 5676 5674 5677 5674 5665 5670 5663 5662 5645 5644 5639 5628 5633 5638 5624 5621 5621 5625 5630 5635
5673 5677 5679 5680 5679 5679 5679 5680 5678 5670 5663 5673 5676 5672 5678 5680 5681 5686 5682 5683 5679 5673 5668 5665 5672 5672 5671 5671 5670 5665 5656 5642 5632 5628 5622 5636 5630 5619 5620 5623 5615 5610 5615 5619 5622
5670 5674 5675 5674 5669 5675 5676 5673 5664 5651 5657 5654 5654 5658 5658 5661 5666 5662 5653 5641 5640 5651 5642 5651 5665 5667 5668 5661 5659 5650 5633 5620 5625 5618 5621 5628 5620 5612 5612 5611 5610 5605 5603 5606 5612
5666 5669 5671 5670 5670 5672 5670 5665 5666 5643 5640 5646 5649 5650 5650 5645 5649 5643 5641 5627 5630 5628 5623 5627 5639 5655 5658 5653 5646 5640 5631 5613 5624 5614 5614 5622 5611 5603 5605 5602 5601 5600 5598 5600 5602
5665 5664 5664 5667 5669 5668 5662 5634 5628 5629 5632 5632 5638 5638 5637 5636 5639 5631 5618 5612 5616 5614 5618 5612 5631 5643 5650 5648 5643 5630 5621 5623 5604 5597 5595 5598 5599 5600 5595 5592 5590 5589 5588 5588 5591
5656 5655 5656 5662 5663 5659 5645 5623 5622 5622 5620 5627 5627 5622 5621 5616 5624 5620 5610 5604 5603 5607 5605 5606 5603 5631 5634 5639 5633 5630 5622 5610 5593 5601 5598 5587 5592 5586 5588 5584 5581 5575 5573 5575 5578
5646 5653 5657 5660 5657 5642 5615 5614 5617 5615 5617 5615 5611 5609 5607 5602 5605 5601 5591 5592 5589 5594 5597 5591 5594 5610 5620 5612 5610 5605 5602 5596 5591 5582 5588 5580 5580 5578 5579 5573 5564 5562 5562 5563 5565
5629 5643 5651 5654 5635 5598 5600 5611 5606 5600 5597 5603 5600 5597 5593 5588 5590 5590 5585 5581 5576 5583 5581 5581 5571 5577 5599 5602 5599 5595 5587 5576 5570 5582 5565 5566 5565 5554 5553 5556 5554 5550 5551 5553 5554
5615 5612 5636 5641 5611 5590 5600 5593 5584 5585 5578 5582 5577 5576 5577 5573 5581 5575 5573 5570 5564 5565 5560 5568 5561 5561 5582 5586 5582 5571 5570 5569 5563 5549 5559 5556 5551 5542 5537 5537 5540 5540 5539 5541 5543
5602 5612 5602 5596 5574 5585 5581 5575 5576 5571 5564 5562 5557 5562 5562 5556 5552 5553 5550 5557 5551 5551 5561 5558 5548 5553 5553 5557 5546 5550 5554 5551 5555 5543 5549 5547 5528 5529 5526 5523 5524 5526 5527 5529 5530
5581 5566 5567 5559 5563 5558 5564 5561 5559 5551 5553 5547 5546 5539 5540 5542 5542 5530 5529 5529 5541 5536 5534 5524 5530 5528 5535 5531 5534 5538 5537 5527 5533 5541 5536 5542 5521 5513 5514 5512 5513 5509 5512 5514 5516
5571 5564 5551 5541 5545 5549 5543 5538 5541 5539 5538 5535 5530 5528 5523 5522 5517 5513 5513 5516 5520 5512 5510 5502 5508 5501 5510 5520 5513 5514 5510 5515 5507 5507 5506 5500 5496 5502 5501 5497 5494 5489 5493 5494 5496
5552 5551 5550 5529 5528 5534 5526 5531 5528 5530 5525 5523 5522 5516 5514 5514 5512 5506 5504 5504 5502 5497 5487 5487 5482 5481 5488 5490 5491 5502 5490 5486 5486 5485 5490 5484 5484 5485 5480 5479 5481 5482 5477 5475 5477